GW2402 Weather Reports


time (UTC)temp
F
wind
direction
speed
knots
gust
knots
rain 1hr
in
rain 24hr
in
rain mn
in
humidity
%
barometer
mb
20260506134542 76 0 0.0 0.0 0.00 0.00 0.00 91 1009.4
20260506133048 76 0 0.0 0.0 0.00 0.00 0.00 92 1009.2
20260506131548 75 0 0.0 0.0 0.00 0.00 0.00 92 1009.1
20260506130047 75 0 0.0 0.0 0.00 0.00 0.00 92 1009.1
20260506124547 75 0 0.0 0.0 0.00 0.00 0.00 92 1009.0
20260506123046 75 0 0.0 0.0 0.00 0.00 0.00 92 1009.0
20260506121548 75 0 0.0 0.0 0.00 0.00 0.00 92 1008.9
20260506120115 75 0 0.0 0.0 0.00 0.00 0.00 92 1008.8
20260506114550 75 0 0.0 0.0 0.00 0.00 0.00 92 1008.9
20260506113047 75 0 0.0 0.0 0.00 0.00 0.00 92 1008.7
20260506111552 75 0 0.0 0.0 0.00 0.00 0.00 92 1008.7
20260506110049 75 0 0.0 0.0 0.00 0.00 0.00 92 1008.7
20260506104548 75 0 0.0 0.9 0.00 0.00 0.00 92 1008.8
20260506103053 75 0 0.0 0.0 0.00 0.00 0.00 92 1008.5
20260506101548 75 0 0.0 0.0 0.00 0.00 0.00 92 1008.3
20260506100045 75 0 0.0 0.9 0.00 0.00 0.00 92 1008.1
20260506094547 75 0 0.0 0.9 0.00 0.00 0.00 91 1007.9
20260506093047 75 0 0.0 0.0 0.00 0.00 0.00 91 1007.7
20260506091543 75 272 0.0 0.9 0.00 0.00 0.00 90 1007.5
20260506090047 75 0 0.0 0.0 0.00 0.00 0.00 90 1007.5
20260506084546 75 330 0.0 0.0 0.00 0.00 0.00 90 1007.6
20260506083051 75 0 0.0 0.0 0.00 0.00 0.00 90 1007.7
20260506081548 75 0 0.0 0.9 0.00 0.00 0.00 90 1007.6
20260506073053 76 0 0.0 3.5 0.00 0.00 0.00 90 1008.0
20260506071551 75 17 0.0 3.5 0.00 0.00 0.00 90 1008.2
20260506070105 75 289 0.0 1.7 0.00 0.00 0.00 91 1008.2
20260506061547 76 0 0.0 0.9 0.00 0.00 0.00 90 1008.2
20260506044554 77 269 0.0 1.7 0.00 0.00 0.00 88 1008.3
20260506043045 77 264 0.0 0.9 0.00 0.00 0.00 87 1008.3
20260506041553 77 0 0.0 1.7 0.00 0.00 0.00 87 1008.0
20260506040043 77 0 0.0 0.9 0.00 0.00 0.00 87 1007.9
20260506034547 77 263 0.0 0.9 0.00 0.00 0.00 87 1007.8
20260506033045 77 0 0.0 0.0 0.00 0.00 0.00 86 1007.7
20260506031555 78 0 0.0 0.9 0.00 0.00 0.00 85 1007.5
20260506030055 78 0 0.0 0.9 0.00 0.00 0.00 85 1007.1
20260506024539 79 0 0.0 0.9 0.00 0.00 0.00 84 1006.8
20260506023047 79 0 0.0 0.9 0.00 0.00 0.00 83 1006.5
20260506021542 79 0 0.0 0.9 0.00 0.00 0.00 82 1006.4
20260506020038 80 0 0.0 0.0 0.00 0.00 0.00 81 1006.1
20260506014546 80 0 0.0 0.0 0.00 0.00 0.00 80 1005.9
20260506013049 81 0 0.0 0.0 0.00 0.00 0.00 80 1005.8
20260506011555 81 0 0.0 0.0 0.00 0.00 0.00 78 1005.9
20260506010041 82 0 0.0 0.0 0.00 0.00 0.00 78 1005.9
20260506004606 82 0 0.0 0.0 0.00 0.00 0.00 77 1005.6
20260506003046 82 0 0.0 0.0 0.00 0.00 0.00 76 1005.7
20260506001544 83 0 0.0 0.9 0.00 0.00 0.00 76 1005.5
20260506000045 83 0 0.0 0.9 0.00 0.00 0.00 75 1005.5
20260505234610 83 0 0.0 0.9 0.00 0.00 0.00 75 1005.4
20260505233046 83 34 0.0 4.3 0.00 0.00 0.00 74 1005.6
20260505231546 84 0 0.0 1.7 0.00 0.00 0.00 75 1005.4
20260505230047 84 252 0.0 3.5 0.00 0.00 0.00 73 1005.3
20260505224539 84 0 0.0 1.7 0.00 0.00 0.00 73 1005.2
20260505223059 84 0 0.0 1.7 0.00 0.00 0.00 73 1005.4
20260505221559 85 319 0.0 1.7 0.00 0.00 0.00 72 1005.3
20260505220050 85 13 0.0 2.6 0.00 0.00 0.00 71 1005.6
20260505214547 85 235 0.9 2.6 0.00 0.00 0.00 71 1005.8
20260505213050 84 272 0.0 2.6 0.00 0.00 0.00 73 1005.9
20260505211608 84 0 0.0 1.7 0.00 0.00 0.00 73 1005.9
20260505210044 85 250 0.0 2.6 0.00 0.00 0.00 73 1006.2
20260505204544 84 248 0.0 3.5 0.00 0.00 0.00 74 1006.3
20260505203052 83 0 0.0 1.7 0.00 0.00 0.00 76 1006.8
20260505201601 82 0 0.0 2.6 0.00 0.00 0.00 76 1007.0
20260505194600 82 317 0.0 3.5 0.00 0.00 0.00 77 1007.3
20260505193047 81 259 0.0 3.5 0.00 0.00 0.00 77 1007.3
20260505191547 80 267 0.0 3.5 0.00 0.00 0.00 78 1007.5
20260505190048 80 278 0.9 4.3 0.00 0.00 0.00 79 1007.7
20260505184549 79 236 0.0 1.7 0.00 0.00 0.00 80 1008.0
20260505183051 79 0 0.0 2.6 0.00 0.00 0.00 80 1008.1
20260505181547 78 287 0.0 4.3 0.00 0.00 0.00 81 1008.3
20260505180046 78 8 0.0 4.3 0.00 0.00 0.00 82 1008.4
20260505174550 77 23 0.0 1.7 0.00 0.00 0.00 83 1008.6
20260505173050 76 6 0.9 4.3 0.00 0.00 0.00 83 1008.9
20260505171546 76 0 0.0 4.3 0.00 0.00 0.00 84 1008.9
20260505170052 76 354 0.0 3.5 0.00 0.00 0.00 83 1008.9
20260505164551 75 0 0.0 3.5 0.00 0.00 0.00 85 1008.9
20260505163049 75 0 0.0 4.3 0.00 0.00 0.00 86 1008.8
20260505161548 74 0 0.0 2.6 0.00 0.00 0.00 87 1009.0
20260505153048 73 331 0.9 3.5 0.00 0.00 0.00 87 1009.0
20260505151548 73 0 0.0 2.6 0.00 0.00 0.00 88 1008.8